This is the latest recevied weather packets stored in our database for station/object WR9A-13. If no packets are shown the sender has not sent any weather packets the latest 10 day(s).
| Time | Temp. | Humidity | Pressure | Rain* | Wind** | Luminosity | Snow |
|---|---|---|---|---|---|---|---|
| 1778013014 | 9.44° C | 83% | 1010 hPa | 0 mm | - | - | - |
| 1778012731 | 9.44° C | 83% | 1010.1 hPa | 0 mm | - | - | - |
| 1778012419 | 10° C | 83% | 1010.2 hPa | 0 mm | - | - | - |
| 1778012116 | 10° C | 83% | 1010.3 hPa | 0 mm | - | - | - |
| 1778011824 | 10° C | 82% | 1010.2 hPa | 0 mm | - | - | - |
| 1778011520 | 10° C | 82% | 1010.4 hPa | 0 mm | - | - | - |
| 1778011231 | 10° C | 79% | 1010.3 hPa | 0 mm | - | - | - |
| 1778010917 | 10.56° C | 79% | 1010.2 hPa | 0 mm | - | - | - |
| 1778010633 | 10.56° C | 78% | 1010.2 hPa | 0 mm | - | - | - |
| 1778010321 | 10.56° C | 78% | 1010.2 hPa | 0 mm | - | - | - |
| 1778010020 | 10.56° C | 78% | 1010.3 hPa | 0 mm | - | - | - |
| 1778009727 | 10.56° C | 79% | 1010.2 hPa | 0 mm | - | - | - |
| 1778009423 | 10.56° C | 77% | 1010.2 hPa | 0 mm | - | - | - |
| 1778009127 | 11.11° C | 77% | 1010.1 hPa | 0 mm | - | - | - |
| 1778008824 | 11.11° C | 77% | 1010 hPa | 0 mm | - | - | - |
| 1778008532 | 11.11° C | 78% | 1009.9 hPa | 0 mm | - | - | - |
| 1778008228 | 11.11° C | 78% | 1009.7 hPa | 0 mm | - | - | - |
| 1778007915 | 11.11° C | 76% | 1009.6 hPa | 0 mm | - | - | - |
| 1778007626 | 11.11° C | 77% | 1009.6 hPa | 0 mm | - | - | - |
| 1778007314 | 11.11° C | 78% | 1009.6 hPa | 0 mm | - | - | - |
| 1778007031 | 11.11° C | 78% | 1009.6 hPa | 0 mm | - | - | - |
| 1778006729 | 11.11° C | 77% | 1009.5 hPa | 0 mm | - | - | - |
| 1778006415 | 11.11° C | 78% | 1009.5 hPa | 0 mm | - | - | - |
| 1778006132 | 11.11° C | 78% | 1009.5 hPa | 0 mm | - | - | - |
| 1778005819 | 11.11° C | 80% | 1009.3 hPa | 0 mm | - | - | - |
* Rain latest hour (hover to see other rain measurements)
** Current wind speed in m/s (hover to see current wind gust speed)